Location: Derby
(52.9213°N, 1.4761°W)
Time: 02:04:06
(UTC+01:00)

Vanguard 2 Rocket - Pass Details

Date: 27 May 2025
Orbit: 554 x 3293 km, 32.9° (Epoch: 12 June)

Event Time Altitude Azimuth Distance (km) Brightness Sun altitude
Rises 21:30:12 0° 222° (SW) 7,053 11.4 -2.5°
Reaches altitude 10° 21:35:38 10° 214° (SW) 6,181 11.0 -3.1°
Maximum altitude 21:51:33 32° 162° (SSE) 4,496 10.0 -4.8°
Drops below altitude 10° 22:05:11 10° 108° (ESE) 5,316 10.3 -6.2°
Sets 22:09:22 0° 99° (E) 5,982 10.6 -6.6°
